Wind_Speed
11 15 13 10 9 6 6 9 11 9 10 9 8 9 10 10 9 9 8 6 8 7 8 9 12 12 10 9 10 10 9 9 9 8 6 5 6 9 9 11 15 17 18 21 23 23 22 23 24 22 22 25 25 24 25 25 24 24 23 22 22 21 20
9 8 8 11 14 11 5 8 10 9 11 10 7 6 9 11 10 9 12 12 9 8 7 8 12 12 11 9 9 9 9 9 8 8 7 5 4 5 6 8 11 12 15 19 21 22 23 23 22 20 23 26 24 22 23 24 24 24 23 23 23 22 22
10 8 7 9 14 16 11 6 6 8 11 9 6 6 8 11 11 9 12 14 10 7 7 10 12 10 10 8 8 8 9 9 8 7 8 8 7 5 5 7 7 3 8 14 18 21 22 22 20 19 20 24 25 23 22 23 25 24 23 23 23 23 23
9 9 10 9 10 15 13 9 8 9 9 8 7 7 8 9 11 9 10 11 6 3 5 9 10 9 9 8 6 7 9 10 10 10 10 12 13 10 7 7 9 9 3 6 13 20 22 22 21 19 18 21 24 23 22 24 24 22 23 23 23 23 23
8 8 8 6 5 9 11 9 8 8 7 7 9 10 9 8 9 8 9 9 5 5 4 7 10 8 7 8 7 7 9 11 11 12 13 14 14 14 12 9 9 11 10 7 4 14 19 20 20 22 22 22 22 22 22 23 23 23 23 22 22 22 21
7 5 4 2 4 4 6 8 9 10 9 8 9 11 11 9 9 8 7 7 7 4 2 6 9 7 7 9 9 9 10 11 12 14 14 15 14 14 12 10 8 10 11 12 11 6 6 8 15 22 24 22 21 24 24 21 22 23 21 19 18 19 18
3 6 5 3 5 7 5 5 7 9 11 11 10 11 10 10 12 8 3 7 6 4 5 8 8 9 10 10 10 10 11 12 13 13 14 15 15 14 13 10 9 9 10 13 14 14 12 10 12 18 20 19 20 24 23 20 20 19 18 17 17 18 18
4 6 2 4 5 6 6 6 6 6 8 10 9 7 6 8 12 9 5 7 5 5 7 10 10 11 12 11 11 11 11 12 12 13 15 15 16 16 15 14 12 12 13 14 14 15 16 14 13 13 11 13 17 20 20 19 19 18 17 16 16 18 18
4 3 4 6 5 6 8 8 5 5 8 9 7 5 5 6 10 11 6 5 6 8 9 10 12 12 11 12 12 11 11 12 12 13 14 14 15 17 17 17 17 17 17 16 16 15 16 16 16 16 13 7 6 12 18 19 17 17 17 14 14 16 16
6 4 4 5 7 8 8 7 4 5 9 10 7 6 6 7 8 7 1 6 9 11 12 12 12 12 11 12 13 12 12 12 12 13 13 14 16 17 18 19 20 21 19 18 17 15 13 14 16 16 14 11 9 9 14 16 14 13 14 13 13 14 14
1 1 3 4 4 10 10 7 5 6 8 8 8 9 8 6 6 3 6 13 15 15 14 13 13 12 11 11 12 12 12 12 13 14 14 15 16 16 17 18 20 21 21 20 19 17 14 12 11 11 11 11 11 10 10 12 11 10 9 10 13 13 13
4 4 4 6 3 5 6 5 5 5 4 6 10 11 6 4 5 4 10 17 18 17 16 15 13 12 11 11 11 11 11 12 13 13 14 15 16 17 17 18 19 20 20 20 19 18 17 13 9 8 8 9 10 10 9 10 11 11 10 10 11 12 15
2 3 3 4 3 2 2 1 2 2 3 7 10 8 5 7 6 6 12 16 16 17 17 16 14 13 12 12 12 11 11 11 12 13 14 15 15 16 17 18 18 18 18 19 18 17 17 15 13 9 6 6 5 6 8 9 10 12 14 14 12 11 13
2 1 1 2 2 1 3 2 1 1 2 2 3 3 3 6 4 12 16 15 14 15 15 15 15 15 14 13 12 11 11 11 12 12 14 14 15 16 16 16 16 16 17 17 17 17 16 16 15 13 10 7 4 2 2 5 8 10 12 14 14 13 12
4 2 2 3 3 4 5 4 3 4 3 2 2 2 1 3 7 14 18 16 13 13 16 17 17 17 15 13 12 10 9 11 12 12 13 14 14 14 15 15 15 15 16 17 17 17 16 16 15 14 13 11 8 5 2 2 5 7 8 8 8 11 13
4 4 4 4 3 5 7 7 7 7 6 5 3 1 1 4 9 14 16 13 10 12 16 17 15 16 15 13 12 10 9 9 11 12 12 13 13 13 14 14 15 15 15 17 17 17 17 16 15 14 14 12 10 9 6 2 2 5 7 5 3 5 9
4 5 4 3 4 7 8 6 7 8 7 4 3 3 2 1 7 10 10 10 10 13 14 13 13 15 14 12 10 9 8 8 9 10 11 11 12 12 12 13 14 14 15 15 16 17 17 16 16 15 14 13 12 12 10 8 4 2 4 7 7 5 5
5 6 3 4 7 7 3 3 3 1 3 4 4 5 5 5 3 3 6 11 14 14 13 13 13 14 13 12 9 6 7 7 8 9 10 10 10 11 11 12 13 13 13 14 15 15 15 15 15 15 14 14 13 12 12 12 10 6 2 5 7 7 8
5 5 5 7 8 4 4 6 6 6 4 3 5 6 6 6 7 10 12 15 16 14 15 14 13 13 13 11 8 6 7 6 7 8 8 9 9 9 10 11 11 12 12 13 15 15 15 15 15 14 14 14 14 13 12 12 12 9 6 4 4 7 9
5 4 6 6 3 4 6 5 3 3 3 4 6 6 4 4 7 10 12 13 13 14 15 15 13 11 12 9 7 6 6 6 6 7 7 8 8 8 9 10 10 10 10 12 14 14 14 15 15 15 15 14 14 14 13 13 12 11 11 10 9 8 7
5 6 7 4 4 4 4 4 4 2 3 5 4 3 5 5 4 7 11 10 10 12 12 11 10 10 11 9 7 6 5 5 5 6 6 6 6 7 8 8 9 9 9 11 13 13 13 13 13 15 16 16 16 15 15 14 14 13 12 12 12 12 9
4 6 6 6 6 6 5 7 7 3 2 1 2 2 5 6 4 6 10 10 10 11 11 10 10 10 9 8 9 9 6 4 4 4 5 5 5 6 7 8 8 8 9 13 14 12 12 11 12 15 17 17 17 16 16 16 16 15 13 12 13 14 12
5 6 7 7 6 3 5 9 8 5 3 0 2 4 7 8 7 7 10 11 12 11 11 10 10 8 7 5 9 13 8 2 3 3 4 4 5 6 6 7 8 8 12 14 13 12 11 12 13 15 16 17 16 16 17 17 16 15 13 13 15 15 14
5 6 6 5 2 3 8 9 7 6 4 2 5 7 6 9 12 10 9 11 11 9 9 8 7 6 3 4 8 9 5 2 2 3 5 7 7 8 8 9 9 10 12 12 11 11 12 13 15 16 15 15 17 18 19 18 16 14 14 16 19 18 17
6 6 7 5 1 6 9 9 9 7 5 4 6 4 5 9 11 10 9 10 10 8 7 6 5 2 5 7 6 4 2 1 2 4 5 6 8 9 11 13 15 14 13 11 11 12 13 14 15 15 14 14 16 19 22 22 20 18 18 20 22 22 20
6 5 6 6 2 6 8 10 10 7 5 3 3 6 9 9 10 9 7 8 9 7 5 4 4 0 4 3 2 1 1 3 3 4 4 5 6 8 10 12 14 15 15 15 15 14 14 14 14 14 14 15 17 20 24 25 24 23 23 23 23 23 23
5 5 7 7 2 6 10 10 8 5 4 2 7 10 10 8 9 8 5 4 6 6 5 3 4 3 2 3 3 3 4 4 4 4 4 5 6 8 9 10 11 12 14 16 18 18 16 16 16 16 16 18 21 23 25 27 28 29 28 27 25 25 25
5 5 4 2 1 8 11 7 2 3 5 7 8 9 9 7 7 7 6 5 5 5 5 4 3 3 3 4 5 5 6 5 5 5 5 5 6 8 9 10 11 12 13 15 17 18 18 17 18 18 19 21 24 27 27 28 29 30 31 31 30 28 27
5 4 1 2 3 8 10 4 2 7 11 10 6 5 7 8 7 5 6 6 7 6 4 4 4 4 4 5 5 5 6 7 7 7 7 8 8 8 8 9 10 12 13 15 17 18 19 19 18 19 20 21 24 26 27 28 29 31 33 34 34 33 31
5 6 4 2 2 6 8 5 5 7 8 7 6 4 4 6 6 6 5 5 6 6 5 4 5 4 4 4 5 5 6 7 8 9 9 10 9 9 9 9 10 12 13 15 16 18 19 19 18 18 19 20 22 25 28 30 31 32 33 34 35 36 35
5 4 5 7 6 6 8 7 7 7 7 5 5 6 6 5 6 6 5 5 5 5 5 5 6 5 4 5 6 6 6 8 9 10 11 11 12 12 12 12 12 12 13 14 15 17 18 19 18 18 19 20 22 25 27 28 30 31 32 34 35 37 37
7 4 1 3 5 7 9 9 8 9 9 8 6 7 7 6 7 7 6 6 6 6 6 7 7 6 6 6 6 6 7 8 8 10 11 12 13 15 15 16 16 15 14 14 14 16 18 19 20 20 21 21 22 23 25 26 27 29 32 34 36 37 37
9 8 6 7 7 8 10 12 12 11 11 10 9 9 8 8 8 8 8 7 7 7 7 7 7 7 7 6 7 7 8 8 9 10 12 13 14 16 17 18 18 17 17 17 17 17 18 18 20 21 22 22 21 22 24 25 25 26 28 30 34 36 36
6 6 5 5 6 7 8 11 12 13 12 12 12 12 11 11 10 10 9 9 9 8 7 7 7 7 7 7 8 8 9 9 10 11 12 14 15 16 17 18 19 19 20 20 19 19 19 18 19 20 22 23 22 22 23 23 24 24 24 25 28 32 34
5 5 6 6 5 6 7 7 9 11 12 13 13 13 13 13 12 11 10 9 9 8 8 8 8 8 8 9 9 10 10 10 11 12 13 14 16 17 18 19 20 21 21 22 22 22 21 20 20 20 20 21 21 21 22 22 23 24 24 25 26 27 29
7 9 11 9 8 10 9 8 9 10 11 12 13 14 15 14 13 12 11 10 9 9 8 8 8 8 9 9 10 11 11 12 12 13 15 16 17 18 19 19 20 21 22 22 23 23 22 21 21 21 21 21 20 20 21 21 22 24 25 26 27 26 26
13 14 14 13 13 13 11 10 12 12 11 12 13 14 15 15 14 13 12 11 10 10 9 10 9 9 10 11 12 12 12 12 13 15 16 17 18 18 19 19 20 21 22 22 23 23 23 23 23 23 24 23 22 22 22 22 24 25 26 28 28 29 28
Wind_Direction
180 205 230 227 241 234 192 209 216 228 236 229 233 220 205 213 214 197 175 121 99 133 144 137 135 121 107 96 79 76 78 76 73 68 59 60 113 150 175 186 192 200 204 207 205 201 199 199 201 203 200 198 195 195 203 206 203 202 200 201 204 203 200
180 211 234 217 237 253 226 208 209 218 232 239 258 241 210 209 215 201 173 155 149 161 159 155 150 129 113 97 77 76 76 78 86 77 64 51 76 123 153 166 176 195 209 209 201 199 203 201 200 206 208 204 198 196 204 209 206 204 202 203 207 207 203
170 186 223 220 234 247 256 266 258 232 220 220 242 253 231 210 211 207 172 160 168 180 168 164 155 127 110 97 79 79 74 70 74 71 65 55 55 80 128 127 111 126 206 202 194 194 199 202 203 207 210 209 206 200 203 210 210 205 202 205 208 208 205
166 181 207 208 212 227 245 271 269 244 228 213 213 238 245 218 213 206 170 161 162 134 135 143 132 113 106 100 84 77 71 67 62 53 46 44 43 46 64 90 72 46 62 186 199 199 196 199 205 207 208 211 214 211 208 213 214 203 200 206 207 207 206
179 186 194 203 213 215 219 228 229 223 224 215 209 226 239 230 222 208 182 174 136 74 71 112 115 112 106 102 101 84 70 67 61 52 47 44 44 42 45 63 63 47 52 71 174 207 203 201 204 207 210 212 217 218 211 212 212 200 199 204 202 205 206
198 169 123 32 339 301 231 216 219 217 214 213 214 219 224 232 237 224 194 164 124 96 100 117 118 123 116 108 105 91 78 72 64 59 55 52 52 52 51 56 56 53 59 66 75 111 169 188 201 208 209 207 211 215 210 210 210 200 197 200 200 206 206
139 93 67 342 318 315 292 243 242 232 212 212 221 221 217 231 243 238 151 114 122 141 137 122 118 116 113 111 104 95 86 78 71 66 62 59 59 60 62 65 63 62 60 65 79 91 96 118 173 194 199 200 207 213 208 203 203 198 193 193 201 210 208
95 83 64 284 291 290 260 232 252 259 232 225 234 243 246 239 235 225 155 117 143 167 134 122 124 121 116 113 105 99 92 83 78 70 61 59 59 58 61 61 58 58 60 69 85 98 102 116 143 154 167 194 211 214 207 199 198 197 190 190 203 213 209
183 167 188 209 220 237 234 221 233 281 280 272 267 271 278 251 238 239 216 148 144 155 145 136 137 131 121 114 106 99 93 85 82 77 69 63 59 55 55 55 54 54 59 68 75 81 90 106 127 132 128 135 181 197 199 203 204 194 184 187 207 214 208
209 200 197 198 193 201 220 227 242 264 266 275 278 256 238 228 244 273 276 127 136 150 154 149 143 135 124 119 112 103 96 88 82 79 75 69 61 55 51 50 55 61 62 64 65 66 74 93 116 130 130 118 109 137 171 190 196 186 184 193 204 207 207
332 7 356 333 221 194 194 197 210 236 247 263 267 251 244 237 242 256 118 129 143 155 158 152 144 138 129 124 117 109 104 95 87 82 78 73 66 60 54 48 51 59 64 64 64 62 61 71 98 117 123 125 119 115 137 165 172 169 180 196 204 212 216
9 20 19 346 295 186 170 175 188 211 232 240 242 242 261 299 267 211 142 143 151 156 157 152 144 139 132 124 118 112 106 98 90 86 83 78 70 64 60 53 47 49 56 62 62 62 62 63 78 102 114 118 118 117 132 161 177 182 188 192 201 216 220
22 11 19 345 334 102 128 169 173 191 221 226 234 240 270 290 265 171 150 156 155 151 151 147 142 140 133 124 118 113 107 99 91 87 83 77 71 64 59 55 51 46 47 54 59 64 68 68 68 78 102 116 114 118 134 153 175 195 205 205 202 209 222
142 18 339 315 314 239 204 206 190 249 232 208 234 241 261 271 209 147 151 156 145 141 143 138 138 139 131 123 120 114 107 99 91 85 80 74 69 64 57 54 53 50 46 46 51 57 61 64 65 65 71 79 85 88 147 167 179 194 202 204 206 208 215
190 194 246 232 255 254 227 210 211 226 210 179 207 204 175 203 169 150 151 147 135 135 136 134 138 140 134 131 126 109 93 92 91 85 77 72 67 61 56 52 48 48 45 41 40 42 44 49 54 57 58 59 62 61 51 209 218 225 209 192 207 221 219
216 194 224 223 232 252 244 225 211 213 215 204 190 147 140 200 176 155 146 142 139 140 140 140 145 146 143 142 130 107 84 79 82 81 75 69 64 58 52 46 43 41 39 34 31 31 32 37 42 45 45 46 49 51 45 46 238 248 235 210 213 236 234
217 176 211 245 233 238 240 220 201 205 207 181 126 105 70 187 189 176 162 153 147 144 147 152 157 157 151 141 127 110 92 81 73 72 72 66 61 57 48 43 39 36 34 30 25 25 25 26 31 33 32 34 36 34 29 25 17 303 235 219 216 222 238
203 154 168 242 231 227 221 75 69 121 178 165 148 137 99 76 97 133 134 140 140 147 160 166 168 163 143 123 121 113 94 90 78 68 65 59 56 52 45 41 36 30 30 25 19 22 21 18 20 23 22 25 23 21 22 19 11 4 310 224 224 235 245
221 143 158 225 228 204 91 75 59 48 61 105 113 109 98 91 99 101 113 130 140 157 164 148 139 144 134 126 136 123 94 88 83 74 64 52 50 46 38 35 29 25 25 18 13 16 16 10 9 9 11 16 15 11 14 11 5 6 2 328 282 267 265
232 177 192 218 195 116 95 92 87 70 98 132 123 118 123 125 126 127 129 133 148 168 157 121 113 143 153 150 153 131 102 89 80 76 67 53 44 37 31 26 21 19 18 11 7 8 8 5 358 353 357 3 4 5 6 1 358 4 7 355 334 317 299
236 227 211 175 135 154 162 152 155 169 179 179 185 179 150 129 127 141 137 136 157 173 158 125 130 169 179 172 167 152 118 99 89 77 70 62 43 31 26 16 10 11 5 360 359 358 1 1 349 342 346 350 350 352 354 354 352 357 5 359 340 331 325
230 246 232 190 188 214 185 150 144 129 121 202 290 241 166 153 150 146 143 150 164 170 171 163 158 173 198 199 174 156 134 97 89 83 70 57 37 25 14 2 1 358 346 345 349 351 353 350 338 334 337 338 339 341 342 344 348 351 354 348 334 329 326
231 246 246 225 222 204 123 123 128 130 128 69 286 241 197 171 163 157 153 159 163 164 171 172 169 188 215 200 149 146 141 83 54 56 30 18 14 8 358 355 353 343 337 340 345 345 341 335 329 331 333 329 326 327 328 333 342 345 342 332 324 325 325
237 236 243 245 251 114 125 130 127 129 134 180 224 224 194 161 162 167 162 159 160 159 157 166 191 216 211 92 105 128 136 90 45 16 359 354 348 345 346 340 332 333 338 337 335 333 329 325 325 328 327 324 319 315 315 321 329 332 328 322 319 321 322
231 228 241 246 85 102 133 138 125 126 148 205 221 201 123 135 153 161 164 161 157 154 156 176 205 169 90 86 90 105 117 71 26 2 353 346 336 336 334 321 315 321 330 328 326 326 322 321 325 325 321 317 314 309 308 310 315 317 314 314 315 316 316
241 236 245 241 173 126 141 133 122 142 186 212 172 125 115 128 138 148 170 171 158 161 171 196 222 147 74 76 74 60 350 341 348 339 339 340 330 328 328 321 317 320 320 315 313 314 317 319 320 316 312 310 306 304 305 306 306 306 304 305 307 309 310
247 235 239 249 228 146 152 143 134 176 216 142 127 132 128 126 129 139 161 160 150 171 194 212 240 272 311 324 334 333 319 325 331 325 335 339 326 322 323 323 323 321 315 308 302 300 306 311 311 309 307 303 299 298 301 302 302 301 300 299 299 301 303
245 231 226 265 104 139 156 165 147 139 132 127 141 147 142 143 149 151 162 161 160 181 204 211 227 259 282 296 311 315 312 316 319 320 327 324 319 319 318 316 318 318 315 311 304 299 298 300 302 304 302 298 296 296 297 299 300 300 299 297 296 296 297
276 284 339 50 107 148 162 168 75 107 123 134 152 157 148 157 165 164 168 172 173 184 205 217 226 242 261 277 290 297 300 306 308 310 311 311 311 312 310 311 314 313 311 309 306 302 297 295 295 297 298 298 296 294 293 293 294 296 298 298 297 295 295
274 276 249 194 154 158 162 154 128 130 139 147 161 178 176 166 166 170 172 168 169 182 199 214 226 235 243 255 271 282 289 295 300 303 305 306 307 308 307 308 308 307 305 303 301 299 296 295 295 295 295 296 293 289 288 289 291 293 295 296 296 295 295
258 254 214 199 203 193 180 174 165 165 173 175 179 198 205 186 174 176 177 172 176 187 200 212 227 237 239 249 262 273 281 286 293 298 301 304 307 307 307 307 306 305 302 298 297 296 295 295 296 293 290 289 289 289 289 289 290 290 290 291 292 293 294
242 258 229 196 221 220 207 204 200 195 197 200 201 207 207 197 189 186 185 188 194 204 209 213 225 236 239 246 257 264 273 281 288 294 298 303 305 305 306 307 307 305 301 296 294 293 293 294 293 290 287 285 285 288 290 292 292 290 288 287 288 289 291
246 248 232 217 226 228 218 217 221 218 212 210 212 211 209 207 201 195 197 202 204 211 217 216 222 234 242 250 258 264 272 280 284 290 294 298 300 302 303 304 304 303 301 298 295 291 290 290 290 288 286 284 282 284 286 290 293 293 290 288 287 286 287
238 245 236 231 238 235 225 227 231 230 226 228 229 223 217 216 213 204 204 209 210 214 221 223 225 235 247 257 262 266 272 277 281 287 291 293 296 298 299 300 300 300 298 297 296 293 290 288 287 287 287 286 286 286 286 288 289 290 290 289 286 285 285
256 284 310 320 297 264 254 252 245 235 230 233 236 231 224 224 224 218 215 219 221 220 223 227 233 242 253 260 264 268 272 275 281 286 289 291 293 295 297 297 297 296 296 296 295 293 292 290 287 286 286 286 287 287 288 287 287 287 287 286 285 284 283
284 278 285 291 278 271 273 271 258 243 235 236 237 233 228 225 225 225 227 231 234 236 239 244 249 253 258 261 265 270 273 277 282 285 288 290 291 292 293 294 294 294 294 294 293 293 292 291 289 287 286 285 285 285 285 285 284 283 282 281 281 280 280
273 273 277 275 269 269 272 266 256 245 237 236 235 231 227 223 223 227 230 233 237 245 253 261 264 265 267 269 272 275 277 279 281 284 285 287 288 288 289 289 290 291 291 291 291 291 291 290 289 288 287 286 285 284 283 282 281 280 279 277 277 276 276
Height
1475 1479 1475 1473 1479 1481 1478 1479 1483 1477 1465 1467 1479 1480 1473 1478 1489 1483 1478 1497 1507 1505 1507 1501 1499 1507 1507 1510 1514 1514 1516 1516 1516 1518 1518 1517 1518 1520 1521 1521 1522 1524 1525 1528 1532 1535 1535 1536 1539 1543 1545 1547 1548 1550 1552 1554 1557 1558 1560 1562 1564 1566 1568
1480 1478 1478 1477 1476 1476 1479 1482 1477 1470 1467 1468 1475 1483 1480 1482 1493 1479 1471 1499 1514 1512 1517 1508 1500 1507 1509 1511 1516 1516 1519 1520 1520 1522 1522 1522 1521 1520 1522 1521 1523 1525 1525 1528 1532 1535 1535 1535 1538 1542 1544 1546 1548 1549 1551 1553 1554 1556 1558 1561 1563 1565 1567
1481 1480 1484 1485 1479 1474 1475 1474 1470 1470 1478 1480 1482 1491 1489 1486 1491 1480 1473 1494 1507 1508 1512 1507 1504 1509 1511 1515 1518 1518 1521 1522 1523 1525 1525 1525 1523 1522 1522 1522 1524 1526 1526 1528 1530 1532 1534 1534 1538 1541 1543 1546 1547 1548 1550 1552 1553 1554 1557 1560 1561 1563 1565
1480 1482 1485 1488 1485 1478 1474 1474 1471 1468 1470 1476 1482 1484 1481 1479 1483 1482 1488 1504 1513 1510 1506 1505 1509 1512 1514 1519 1521 1521 1523 1524 1526 1526 1525 1525 1524 1523 1523 1523 1525 1526 1526 1526 1526 1529 1531 1533 1536 1540 1543 1545 1547 1548 1550 1552 1553 1555 1557 1559 1559 1561 1562
1481 1483 1481 1482 1483 1479 1479 1481 1479 1473 1468 1469 1476 1477 1472 1473 1476 1480 1494 1515 1523 1517 1510 1510 1513 1515 1516 1521 1523 1524 1526 1527 1528 1528 1526 1526 1525 1525 1525 1525 1526 1527 1527 1526 1525 1526 1529 1532 1535 1537 1540 1543 1546 1549 1550 1550 1552 1553 1555 1556 1557 1559 1560
1482 1480 1476 1478 1480 1478 1477 1478 1476 1474 1472 1474 1484 1485 1472 1467 1470 1470 1484 1514 1529 1520 1513 1513 1515 1517 1518 1521 1523 1526 1528 1529 1529 1529 1529 1528 1528 1527 1528 1529 1530 1530 1530 1529 1527 1527 1530 1532 1533 1536 1539 1541 1544 1548 1549 1549 1550 1550 1551 1553 1556 1558 1560
1480 1479 1478 1479 1481 1478 1476 1476 1473 1469 1469 1474 1484 1488 1478 1470 1467 1461 1476 1516 1533 1520 1512 1515 1516 1518 1521 1523 1525 1527 1529 1530 1530 1531 1531 1531 1531 1531 1532 1532 1533 1534 1533 1532 1530 1530 1530 1530 1532 1535 1539 1541 1543 1546 1547 1548 1548 1548 1549 1551 1554 1557 1558
1478 1480 1481 1479 1480 1481 1480 1479 1475 1470 1469 1470 1473 1477 1477 1475 1471 1465 1485 1526 1537 1520 1513 1517 1518 1521 1523 1525 1527 1528 1530 1531 1531 1533 1533 1532 1533 1533 1533 1534 1535 1534 1533 1531 1530 1531 1531 1532 1532 1534 1537 1541 1544 1545 1546 1547 1548 1548 1548 1550 1553 1555 1556
1491 1493 1492 1489 1486 1485 1483 1479 1476 1476 1475 1473 1474 1476 1479 1482 1475 1466 1485 1519 1529 1519 1516 1518 1519 1521 1523 1525 1528 1529 1531 1531 1532 1533 1534 1533 1534 1533 1533 1534 1533 1532 1531 1530 1531 1531 1532 1534 1535 1537 1539 1542 1543 1544 1545 1547 1548 1548 1548 1549 1551 1552 1554
1505 1506 1501 1494 1488 1486 1484 1481 1481 1484 1482 1480 1481 1481 1485 1491 1483 1474 1491 1515 1522 1518 1517 1518 1520 1521 1523 1526 1528 1530 1532 1533 1533 1533 1534 1535 1534 1534 1534 1533 1533 1532 1532 1532 1532 1532 1533 1534 1535 1538 1539 1540 1541 1543 1545 1546 1546 1547 1548 1549 1550 1550 1552
1503 1504 1498 1486 1480 1481 1485 1486 1488 1488 1484 1484 1485 1484 1487 1488 1484 1489 1504 1515 1520 1522 1519 1519 1521 1521 1524 1526 1527 1529 1531 1532 1533 1534 1535 1535 1535 1535 1535 1534 1534 1534 1533 1533 1533 1533 1534 1534 1534 1535 1536 1536 1537 1540 1543 1544 1544 1544 1545 1548 1549 1549 1551
1498 1496 1495 1488 1481 1482 1485 1488 1490 1490 1488 1488 1488 1486 1487 1486 1488 1503 1511 1509 1515 1520 1517 1518 1522 1522 1524 1527 1528 1530 1531 1532 1534 1534 1535 1535 1536 1536 1537 1536 1536 1535 1534 1534 1534 1535 1535 1535 1535 1535 1535 1535 1535 1536 1539 1541 1542 1542 1543 1544 1546 1548 1549
1497 1494 1494 1492 1489 1488 1490 1491 1491 1491 1490 1490 1488 1487 1488 1486 1491 1506 1512 1509 1512 1515 1514 1518 1523 1523 1526 1529 1530 1532 1533 1534 1535 1535 1535 1536 1536 1537 1538 1538 1538 1538 1537 1536 1535 1536 1535 1535 1535 1535 1535 1535 1535 1536 1537 1539 1540 1541 1542 1543 1544 1546 1548
1499 1498 1497 1495 1494 1494 1493 1493 1494 1493 1491 1490 1490 1489 1489 1487 1489 1498 1505 1507 1510 1512 1514 1519 1523 1526 1529 1532 1533 1534 1535 1536 1537 1536 1537 1537 1538 1539 1539 1540 1540 1540 1540 1539 1538 1537 1536 1536 1536 1535 1535 1535 1535 1537 1538 1538 1539 1540 1541 1543 1544 1545 1546
1501 1500 1498 1497 1497 1496 1494 1495 1495 1494 1493 1493 1493 1492 1489 1489 1492 1495 1502 1509 1513 1514 1515 1520 1525 1528 1532 1534 1536 1537 1537 1537 1538 1538 1539 1539 1540 1541 1541 1542 1542 1542 1542 1541 1540 1539 1538 1537 1537 1536 1536 1536 1536 1537 1537 1538 1539 1539 1540 1542 1544 1545 1546
1504 1499 1499 1499 1497 1496 1496 1496 1496 1495 1495 1494 1493 1493 1491 1492 1494 1498 1507 1515 1517 1515 1517 1522 1526 1528 1531 1534 1536 1538 1539 1539 1539 1539 1540 1541 1541 1542 1542 1543 1543 1542 1542 1542 1541 1540 1539 1538 1538 1538 1538 1538 1537 1537 1537 1538 1538 1539 1540 1541 1543 1544 1545
1505 1500 1501 1500 1500 1504 1503 1495 1492 1493 1493 1493 1494 1495 1494 1493 1494 1499 1508 1515 1516 1516 1520 1524 1526 1528 1531 1533 1536 1538 1540 1541 1541 1541 1541 1542 1543 1543 1544 1544 1543 1543 1543 1542 1541 1541 1540 1539 1539 1539 1539 1539 1539 1539 1539 1538 1538 1538 1539 1540 1541 1542 1543
1505 1502 1504 1505 1509 1513 1506 1494 1490 1492 1493 1495 1498 1499 1498 1498 1497 1497 1502 1509 1514 1518 1522 1525 1526 1527 1530 1534 1538 1540 1541 1542 1542 1543 1543 1543 1544 1544 1545 1545 1544 1544 1544 1543 1543 1541 1541 1540 1540 1539 1539 1539 1540 1540 1539 1539 1539 1539 1538 1539 1540 1540 1540
1501 1502 1510 1518 1519 1511 1502 1498 1498 1498 1498 1497 1499 1502 1502 1503 1503 1503 1504 1510 1514 1516 1520 1523 1526 1527 1531 1537 1540 1541 1542 1542 1543 1543 1544 1544 1545 1545 1545 1545 1545 1545 1545 1544 1543 1542 1542 1542 1541 1540 1540 1539 1540 1540 1540 1540 1540 1539 1539 1539 1539 1539 1539
1502 1505 1515 1522 1518 1507 1502 1505 1504 1503 1504 1503 1505 1510 1509 1505 1505 1507 1508 1511 1513 1514 1517 1523 1528 1529 1532 1537 1540 1542 1542 1543 1543 1544 1544 1545 1545 1546 1546 1546 1546 1546 1545 1545 1544 1543 1543 1543 1542 1541 1540 1540 1540 1540 1540 1540 1540 1540 1540 1539 1539 1539 1539
1504 1507 1507 1509 1513 1512 1509 1510 1508 1506 1507 1506 1507 1512 1512 1508 1508 1509 1511 1514 1515 1515 1518 1524 1529 1531 1532 1536 1539 1541 1542 1543 1544 1545 1545 1545 1546 1546 1546 1546 1546 1546 1545 1545 1545 1544 1544 1544 1543 1542 1541 1540 1540 1540 1540 1540 1539 1539 1540 1540 1539 1538 1538
1504 1506 1505 1505 1514 1516 1510 1507 1508 1508 1509 1508 1508 1511 1514 1513 1512 1512 1513 1517 1519 1520 1522 1526 1530 1534 1533 1532 1534 1539 1542 1543 1544 1544 1545 1546 1546 1546 1547 1546 1546 1546 1545 1544 1544 1544 1545 1545 1544 1542 1542 1541 1541 1541 1540 1540 1540 1540 1540 1540 1539 1539 1539
1505 1508 1509 1505 1507 1511 1509 1507 1509 1510 1512 1511 1511 1515 1517 1515 1515 1516 1516 1519 1522 1524 1526 1528 1531 1534 1531 1528 1531 1537 1541 1542 1543 1544 1544 1545 1546 1546 1547 1547 1546 1545 1544 1544 1544 1545 1545 1545 1543 1543 1542 1542 1541 1541 1541 1541 1541 1541 1541 1540 1539 1539 1539
1506 1508 1508 1501 1501 1508 1509 1509 1511 1512 1513 1514 1518 1522 1519 1513 1515 1519 1518 1521 1524 1526 1528 1531 1532 1531 1530 1531 1535 1538 1540 1542 1543 1543 1543 1544 1544 1545 1546 1546 1545 1545 1545 1545 1545 1545 1545 1544 1543 1543 1543 1542 1541 1541 1540 1541 1541 1541 1541 1539 1538 1539 1539
1505 1507 1507 1501 1504 1511 1509 1508 1512 1514 1514 1517 1521 1523 1518 1515 1518 1520 1520 1522 1526 1527 1530 1532 1531 1531 1533 1537 1539 1540 1541 1543 1543 1543 1544 1544 1543 1544 1544 1543 1542 1543 1544 1544 1544 1544 1544 1543 1543 1543 1542 1541 1540 1539 1539 1539 1540 1540 1539 1538 1538 1538 1538
1504 1506 1506 1503 1507 1513 1511 1510 1513 1515 1517 1519 1519 1518 1519 1519 1521 1522 1522 1523 1526 1528 1531 1532 1532 1533 1536 1538 1539 1540 1542 1543 1543 1544 1544 1544 1544 1544 1544 1543 1542 1542 1542 1542 1542 1542 1542 1542 1542 1542 1541 1540 1539 1538 1537 1537 1538 1538 1537 1537 1536 1536 1536
1504 1508 1510 1509 1510 1512 1511 1512 1514 1514 1517 1519 1518 1518 1521 1523 1523 1524 1525 1525 1527 1530 1532 1533 1534 1535 1536 1538 1539 1540 1541 1542 1543 1543 1543 1543 1544 1544 1544 1544 1544 1543 1542 1541 1540 1540 1541 1541 1541 1540 1540 1539 1537 1537 1536 1536 1535 1535 1535 1535 1535 1535 1535
1503 1507 1510 1511 1511 1510 1511 1512 1512 1513 1516 1518 1519 1520 1522 1524 1525 1526 1527 1528 1530 1532 1533 1534 1535 1536 1537 1538 1538 1539 1540 1540 1541 1542 1543 1543 1544 1544 1544 1544 1543 1542 1541 1540 1539 1539 1539 1539 1539 1538 1538 1536 1535 1535 1535 1534 1533 1532 1532 1532 1532 1532 1533
1504 1506 1508 1510 1510 1510 1512 1514 1513 1514 1517 1520 1521 1522 1522 1524 1526 1526 1527 1529 1531 1532 1534 1534 1535 1536 1537 1538 1538 1538 1539 1539 1540 1541 1541 1542 1543 1543 1544 1543 1542 1542 1541 1540 1539 1538 1537 1537 1537 1536 1536 1535 1534 1533 1533 1532 1532 1530 1529 1529 1529 1529 1530
1506 1506 1507 1509 1511 1511 1512 1514 1516 1517 1519 1520 1522 1523 1523 1524 1526 1527 1528 1529 1530 1532 1534 1534 1535 1536 1537 1538 1538 1538 1539 1539 1539 1540 1540 1540 1541 1541 1542 1542 1542 1541 1540 1539 1539 1537 1536 1536 1536 1535 1535 1534 1533 1531 1531 1530 1530 1529 1528 1527 1526 1526 1526
1509 1508 1506 1507 1510 1512 1513 1515 1516 1518 1520 1521 1522 1523 1523 1524 1526 1527 1528 1530 1531 1533 1533 1534 1535 1536 1536 1537 1538 1538 1539 1539 1539 1539 1539 1539 1539 1539 1539 1540 1540 1540 1539 1539 1538 1536 1535 1535 1534 1533 1533 1532 1531 1530 1529 1529 1528 1527 1526 1525 1524 1523 1523
1508 1507 1506 1508 1511 1511 1512 1514 1515 1517 1519 1521 1522 1523 1524 1525 1526 1527 1528 1530 1531 1532 1533 1534 1535 1535 1536 1537 1537 1538 1538 1538 1538 1538 1538 1537 1537 1537 1536 1536 1537 1537 1537 1537 1536 1536 1534 1533 1532 1531 1530 1530 1529 1528 1527 1527 1526 1525 1524 1523 1522 1521 1521
1506 1505 1506 1509 1511 1511 1511 1513 1513 1514 1517 1518 1520 1522 1524 1524 1526 1527 1528 1529 1530 1531 1532 1533 1534 1535 1535 1536 1537 1537 1538 1538 1538 1538 1537 1537 1536 1536 1535 1534 1534 1534 1534 1534 1534 1534 1533 1532 1531 1529 1528 1528 1527 1526 1526 1525 1524 1523 1522 1521 1520 1519 1519
1506 1504 1504 1506 1509 1509 1510 1511 1512 1513 1515 1516 1517 1520 1522 1524 1525 1526 1527 1528 1529 1530 1531 1532 1533 1534 1535 1535 1536 1536 1537 1537 1537 1537 1537 1536 1535 1535 1534 1533 1532 1531 1531 1530 1530 1530 1530 1530 1529 1528 1527 1526 1525 1524 1524 1523 1523 1522 1520 1519 1518 1517 1516
1502 1503 1505 1507 1509 1509 1509 1510 1511 1512 1513 1514 1515 1517 1520 1522 1524 1525 1526 1527 1528 1529 1530 1531 1531 1532 1533 1534 1535 1535 1535 1536 1536 1536 1536 1535 1535 1534 1533 1532 1531 1530 1529 1528 1527 1527 1527 1527 1526 1526 1525 1524 1524 1523 1522 1522 1521 1520 1519 1517 1516 1515 1514
1504 1506 1507 1509 1510 1510 1509 1510 1511 1511 1512 1513 1514 1516 1518 1520 1522 1524 1525 1526 1527 1528 1529 1529 1530 1531 1532 1532 1533 1534 1534 1534 1535 1535 1535 1534 1534 1533 1532 1531 1530 1528 1527 1526 1525 1524 1524 1523 1523 1523 1522 1522 1522 1522 1521 1520 1519 1518 1517 1515 1514 1513 1512
1506 1507 1507 1508 1509 1509 1509 1510 1510 1511 1511 1512 1513 1514 1516 1518 1520 1522 1523 1524 1526 1526 1527 1528 1529 1529 1530 1530 1531 1532 1532 1533 1533 1533 1533 1532 1532 1531 1530 1530 1528 1527 1526 1525 1523 1522 1521 1520 1520 1519 1519 1519 1519 1519 1518 1518 1517 1515 1514 1513 1511 1510 1509